This is the latest recevied weather packets stored in our database for station/object KA9CBS. If no packets are shown the sender has not sent any weather packets the latest 10 day(s).
| Time | Temp. | Humidity | Pressure | Rain* | Wind** | Luminosity | Snow |
|---|---|---|---|---|---|---|---|
| 1778156827 | 6.67° C | 99% | 1019.4 hPa | 0 mm | - | 58 W/m² | - |
| 1778156523 | 6.11° C | 98% | 1019.1 hPa | 0 mm | - | 43 W/m² | - |
| 1778156219 | 6.11° C | 98% | 1019.1 hPa | 0 mm | - | 37 W/m² | - |
| 1778155915 | 5.56° C | 98% | 1019 hPa | 0 mm | - | 36 W/m² | - |
| 1778155612 | 5° C | 98% | 1019.2 hPa | 0 mm | - | 33 W/m² | - |
| 1778155309 | 5° C | 98% | 1019.1 hPa | 0 mm | - | 32 W/m² | - |
| 1778155005 | 4.44° C | 98% | 1019.2 hPa | 0 mm | - | 31 W/m² | - |
| 1778154700 | 3.89° C | 98% | 1019 hPa | 0 mm | - | 28 W/m² | - |
| 1778154397 | 3.89° C | 98% | 1019 hPa | 0 mm | - | 27 W/m² | - |
| 1778154094 | 3.33° C | 97% | 1019 hPa | 0 mm | - | 24 W/m² | - |
| 1778153792 | 3.33° C | 97% | 1018.8 hPa | 0 mm | - | 21 W/m² | - |
| 1778153488 | 3.33° C | 97% | 1018.7 hPa | 0 mm | - | 19 W/m² | - |
| 1778153186 | 3.33° C | 97% | 1018.4 hPa | 0 mm | - | 16 W/m² | - |
| 1778152882 | 3.33° C | 97% | 1018.6 hPa | 0 mm | - | 14 W/m² | - |
| 1778152580 | 3.33° C | 97% | 1018.7 hPa | 0 mm | - | 11 W/m² | - |
| 1778152276 | 3.33° C | 97% | 1018.7 hPa | 0 mm | - | 8 W/m² | - |
| 1778151973 | 3.33° C | 96% | 1018.4 hPa | 0 mm | - | 6 W/m² | - |
| 1778151669 | 3.33° C | 96% | 1018.4 hPa | 0 mm | - | 3 W/m² | - |
| 1778151366 | 3.89° C | 96% | 1018.4 hPa | 0 mm | - | 2 W/m² | - |
| 1778151062 | 3.89° C | 96% | 1018.3 hPa | 0 mm | - | 0 W/m² | - |
| 1778150760 | 3.89° C | 96% | 1018.6 hPa | 0 mm | - | 0 W/m² | - |
| 1778150456 | 3.89° C | 95% | 1018.4 hPa | 0 mm | - | 0 W/m² | - |
| 1778150152 | 3.33° C | 95% | 1018.4 hPa | 0 mm | - | 0 W/m² | - |
| 1778149849 | 3.33° C | 94% | 1018.4 hPa | 0 mm | - | 0 W/m² | - |
| 1778149546 | 3.33° C | 94% | 1018.6 hPa | 0 mm | - | 0 W/m² | - |
* Rain latest hour (hover to see other rain measurements)
** Current wind speed in m/s (hover to see current wind gust speed)